This demonstration page uses our WeatherBlox Daily Observations layout. Learn more.

Hourly Observations for April 25, 2019

Temp ( °F °C ) Dew Point ( °F °C ) Humidity (%) Winds ( mph kmh ) Pressure ( in mb ) Visibility ( mi km ) Precip ( " mm )
12:15 am 00:15 Clear 58 14.5 41 4.9 53 53 S 10 17 29.75 1008 10 16.0934 0 0
12:35 am 00:35 Clear 56 13.5 41 5.1 57 57 SSW 9 15 29.76 1008 10 16.0934 0 0
12:55 am 00:55 Clear 56 13.5 41 4.8 56 56 S 8 13 29.76 1008 10 16.0934 0 0
1:15 am 01:15 Clear 55 12.7 41 4.9 59 59 SSW 6 9 29.77 1008 10 16.0934 0 0
1:35 am 01:35 Clear 54 12 41 5 63 63 SSW 8 13 29.78 1008 10 16.0934 0 0
1:55 am 01:55 Clear 54 12 40 4.7 61 61 SSW 7 11 29.78 1008 10 16.0934 0 0
2:15 am 02:15 Clear 52 11.3 41 5 65 65 SSW 6 9 29.79 1009 10 16.0934 0 0
2:35 am 02:35 Mostly Cloudy 54 12.3 42 5.5 63 63 NNW 20 31 29.83 1010 10 16.0934 0 0
2:55 am 02:55 Cloudy 57 13.9 43 6.3 60 60 NNW 9 15 29.8 1009 10 16.0934 0 0
3:15 am 03:15 Mostly Cloudy 58 14.2 44 6.8 61 61 N 13 20 29.81 1009 10 16.0934 0 0
3:35 am 03:35 Mostly Cloudy 56 13.6 48 8.8 73 73 N 16 26 29.82 1010 10 16.0934 0 0
3:55 am 03:55 Mostly Cloudy 56 13.3 47 8.5 73 73 N 17 28 29.82 1010 10 16.0934 0 0
4:15 am 04:15 Mostly Cloudy 56 13.2 47 8.5 73 73 N 16 26 29.82 1010 10 16.0934 0 0
4:35 am 04:35 Cloudy 55 12.8 48 8.8 77 77 N 22 35 29.83 1010 10 16.0934 0 0
4:55 am 04:55 Cloudy with Light Rain 54 12.2 49 9.2 82 82 NNE 20 31 29.84 1011 10 16.0934 0 0
5:15 am 05:15 Cloudy with Light Rain 53 11.5 50 10 91 91 NNE 22 35 29.85 1011 10 16.0934 0 0
5:35 am 05:35 Cloudy with Rain 53 11.5 51 10.4 93 93 NNW 15 24 29.91 1013 10 16.0934 0.01 0.254
5:55 am 05:55 Cloudy with Light Rain 52 11.2 51 10.6 96 96 N 16 26 29.89 1012 10 16.0934 0.01 0.254
6:15 am 06:15 Cloudy 52 11 51 10.6 97 97 N 16 26 29.89 1012 10 16.0934 0 0
6:35 am 06:35 Cloudy 52 11.1 51 10.7 97 97 N 17 28 29.9 1013 10 16.0934 0 0
6:55 am 06:55 Cloudy 52 11 51 10.8 99 99 N 14 22 29.9 1013 10 16.0934 0 0
7:15 am 07:15 Cloudy with Light Rain 52 11 51 10.7 98 98 N 10 17 29.92 1013 10 16.0934 0 0
7:35 am 07:35 Cloudy 52 11 51 10.5 97 97 N 10 17 29.93 1014 10 16.0934 0 0
7:55 am 07:55 Mostly Cloudy 52 11.1 51 10.6 97 97 N 10 17 29.94 1014 10 16.0934 0 0
8:15 am 08:15 Cloudy 52 11.3 51 10.6 96 96 NNW 10 17 29.96 1015 10 16.0934 0 0
8:35 am 08:35 Cloudy 52 11.3 51 10.5 95 95 NNW 12 19 29.97 1015 10 16.0934 0 0
8:55 am 08:55 Cloudy 53 11.4 51 10.4 94 94 NNW 17 28 29.98 1015 10 16.0934 0 0
9:15 am 09:15 Cloudy 53 11.5 51 10.3 92 92 NNW 16 26 29.99 1016 10 16.0934 0 0
9:35 am 09:35 Cloudy 53 11.6 51 10.3 92 92 NNW 15 24 29.99 1016 10 16.0934 0 0
9:55 am 09:55 Cloudy 54 12.1 51 10.6 91 91 NNW 15 24 29.98 1015 10 16.0934 0 0
10:15 am 10:15 Cloudy 56 13.4 51 10.5 83 83 N 17 28 29.98 1015 10 16.0934 0 0
10:35 am 10:35 Mostly Cloudy 57 14 50 9.9 77 77 N 22 35 29.98 1015 10 16.0934 0 0
10:55 am 10:55 Partly Cloudy 59 15 49 9.6 70 70 N 21 33 29.98 1015 10 16.0934 0 0
11:15 am 11:15 Partly Cloudy 60 15.5 49 9.5 68 68 N 17 28 29.98 1015 10 16.0934 0 0
11:35 am 11:35 Partly Cloudy 62 16.8 49 9.6 63 63 N 17 28 29.98 1015 10 16.0934 0 0
11:55 am 11:55 Mostly Cloudy 60 15.7 47 8.2 61 61 NNW 18 30 29.99 1016 10 16.0934 0 0
12:15 pm 12:15 Cloudy 61 16.3 47 8.6 61 61 N 21 33 29.99 1016 10 16.0934 0 0
12:35 pm 12:35 Cloudy 63 17 47 8.4 57 57 N 15 24 29.98 1015 10 16.0934 0 0
12:55 pm 12:55 Cloudy 62 16.9 47 8.2 57 57 N 16 26 29.98 1015 10 16.0934 0 0
1:15 pm 13:15 Mostly Cloudy 63 17.3 46 8 55 55 N 13 20 29.98 1015 10 16.0934 0 0
1:35 pm 13:35 Mostly Cloudy 63 17.1 46 7.8 55 55 N 16 26 29.98 1015 10 16.0934 0 0
1:55 pm 13:55 Mostly Cloudy 64 17.8 45 7.4 51 51 N 20 31 29.99 1015 10 16.0934 0 0
2:15 pm 14:15 Partly Cloudy 65 18.6 44 6.7 46 46 N 16 26 29.98 1015 10 16.0934 0 0
2:35 pm 14:35 Partly Cloudy 66 19.1 43 6.2 43 43 N 15 24 29.97 1015 10 16.0934 0 0
2:55 pm 14:55 Mostly Cloudy 66 18.8 43 6.2 44 44 NNE 18 30 29.99 1015 10 16.0934 0 0
3:15 pm 15:15 Partly Cloudy 67 19.3 42 5.5 41 41 N 17 28 29.97 1015 10 16.0934 0 0
3:35 pm 15:35 Partly Cloudy 67 19.4 41 5.2 39 39 N 12 19 29.97 1015 10 16.0934 0 0
3:55 pm 15:55 Partly Cloudy 68 20 42 5.4 39 39 N 12 19 29.97 1015 10 16.0934 0 0
4:15 pm 16:15 Mostly Cloudy 67 19.6 41 5.1 39 39 N 16 26 29.97 1015 10 16.0934 0 0
4:35 pm 16:35 Partly Cloudy 68 20.2 41 4.8 37 37 NNW 10 17 29.97 1015 10 16.0934 0 0
4:55 pm 16:55 Mostly Cloudy 68 20.2 41 5 37 37 N 13 20 29.97 1015 10 16.0934 0 0
5:15 pm 17:15 Mostly Cloudy 67 19.4 40 4.3 37 37 NNW 13 20 29.97 1015 10 16.0934 0 0
5:35 pm 17:35 Partly Cloudy 69 20.5 40 4.2 34 34 NNW 14 22 29.96 1015 10 16.0934 0 0
5:55 pm 17:55 Mostly Cloudy 68 20 40 4.4 36 36 N 13 20 29.98 1015 10 16.0934 0 0
6:15 pm 18:15 Mostly Cloudy 68 19.9 39 3.7 34 34 N 12 19 29.98 1015 10 16.0934 0 0
6:35 pm 18:35 Mostly Cloudy 68 19.8 38 3.6 34 34 NNW 9 15 29.99 1016 10 16.0934 0 0
6:55 pm 18:55 Partly Cloudy 67 19.3 38 3.1 34 34 N 17 28 29.99 1016 10 16.0934 0 0
7:15 pm 19:15 Partly Cloudy 65 18.5 38 3.2 36 36 N 13 20 30 1016 10 16.0934 0 0
7:35 pm 19:35 Mostly Cloudy 65 18.5 38 3.6 37 37 N 13 20 30.01 1016 10 16.0934 0 0
7:55 pm 19:55 Partly Cloudy 63 17.3 39 3.7 41 41 N 9 15 30.02 1017 10 16.0934 0 0
8:15 pm 20:15 Partly Cloudy 61 16.3 39 3.8 44 44 N 8 13 30.04 1017 10 16.0934 0 0
8:35 pm 20:35 Clear 60 15.4 38 3.5 45 45 N 8 13 30.05 1017 10 16.0934 0 0
8:55 pm 20:55 Clear 58 14.7 38 3.5 47 47 N 9 15 30.07 1018 10 16.0934 0 0
9:15 pm 21:15 Partly Cloudy 54 12.2 39 4 58 58 N 8 13 30.1 1019 10 16.0934 0 0
9:35 pm 21:35 Partly Cloudy 52 10.9 39 4 63 63 N 8 13 30.12 1020 10 16.0934 0 0
9:55 pm 21:55 Clear 49 9.5 39 4 69 69 N 8 13 30.15 1021 10 16.0934 0 0
10:15 pm 22:15 Clear 49 9.5 39 4.1 69 69 N 8 13 30.17 1022 10 16.0934 0 0
10:35 pm 22:35 Clear 51 10.7 39 4 64 64 N 9 15 30.16 1021 10 16.0934 0 0
10:55 pm 22:55 Clear 49 9.4 39 3.8 68 68 N 8 13 30.18 1022 10 16.0934 0 0
11:15 pm 23:15 Clear 48 9.1 38 3.6 69 69 N 6 9 30.17 1022 10 16.0934 0 0
11:35 pm 23:35 Clear 47 8.2 38 3.5 73 73 N 8 13 30.18 1022 10 16.0934 0 0
11:55 pm 23:55 Clear 44 6.6 37 3 78 78 NNE 9 15 30.19 1022 10 16.0934 0 0

Powered by AerisWeather